STARLINK-34997 (65418 NORAD) Tracking and Keplerian Element Data

This shows tracking and keplerian element data for the satellite.

Feedback or suggestion? Click here.




ElementValue
Catalog65418
NameSTARLINK-34997
Epoch Orbit1713
Epoch Day354.14729186
Epoch Year2025
RAAN246.9586
Inclination53.1579
Eccentricity0.000182
Argument of Perigee57.9807
Mean Anonmoly302.1374
Mean Motion15.39633386
Decay Rate0.00024145
L11 65418U 25192Q 25354.14729186 .00024145 00000+0 61143-3 0 9993
L22 65418 53.1579 246.9586 0001820 57.9807 302.1374 15.39633386 17132



Live tracking and technical data element details for STARLINK-34997 (NORAD 65418). STARLINK-34997 can be tracked NOW for your location showing map with azimuth and elevation plus other details from your city location.







IsCatalogInMostPopularTable: catalog: 65418, numindb: 2
Update: records affected: 1



GetName: 65418 STARLINK-34997

Hit Count: updated at: Sat, 07 Feb 2026 08:30:45 GMT